Time,TemperatureF,DewpointF,PressureIn,WindDirection,WindDirectionDegrees,WindSpeedMPH,WindSpeedGustMPH,Humidity,HourlyPrecipIn,Conditions,Clouds,dailyrainin,SoftwareType,DateUTC
2013-09-25 00:00:00,52.2,43.3,29.91,North,-999,0.0,0.0,72,0.04,,,-99.99,FreeWX-Wi 1.01,2013-09-25 07:00:00,
2013-09-25 00:06:00,52.0,43.2,29.91,North,-999,0.0,0.0,72,0.04,,,-99.99,FreeWX-Wi 1.01,2013-09-25 07:06:00,
2013-09-25 00:11:00,52.0,43.5,29.91,North,-999,0.0,0.0,73,0.04,,,-99.99,FreeWX-Wi 1.01,2013-09-25 07:11:00,
2013-09-25 00:16:00,52.2,43.7,29.91,North,-999,0.0,0.0,73,0.04,,,-99.99,FreeWX-Wi 1.01,2013-09-25 07:16:00,
2013-09-25 00:21:00,52.2,43.7,29.91,North,-999,0.0,0.0,73,0.04,,,-99.99,FreeWX-Wi 1.01,2013-09-25 07:21:00,
2013-09-25 00:26:00,52.2,43.7,29.88,North,-999,0.0,0.0,73,0.04,,,-99.99,FreeWX-Wi 1.01,2013-09-25 07:26:00,
2013-09-25 00:31:00,52.2,43.7,29.88,North,-999,0.0,0.0,73,0.04,,,-99.99,FreeWX-Wi 1.01,2013-09-25 07:31:00,
2013-09-25 00:36:00,52.0,43.5,29.88,North,-999,0.0,0.0,73,0.04,,,-99.99,FreeWX-Wi 1.01,2013-09-25 07:36:00,
2013-09-25 00:41:00,52.0,43.5,29.88,North,-999,0.0,0.0,73,0.04,,,-99.99,FreeWX-Wi 1.01,2013-09-25 07:41:00,
2013-09-25 00:46:00,52.0,43.5,29.88,North,-999,0.0,0.0,73,0.04,,,-99.99,FreeWX-Wi 1.01,2013-09-25 07:46:00,
2013-09-25 00:51:00,52.0,43.5,29.88,North,-999,0.0,0.0,73,0.04,,,-99.99,FreeWX-Wi 1.01,2013-09-25 07:51:00,
2013-09-25 00:56:00,51.8,43.3,29.91,North,-999,0.0,0.0,73,0.04,,,-99.99,FreeWX-Wi 1.01,2013-09-25 07:56:00,
2013-09-25 01:01:00,51.8,43.3,29.91,North,-999,0.0,0.0,73,0.00,,,-99.99,FreeWX-Wi 1.01,2013-09-25 08:01:00,
2013-09-25 01:06:00,51.8,43.3,29.91,North,-999,0.0,0.0,73,0.00,,,-99.99,FreeWX-Wi 1.01,2013-09-25 08:06:00,
2013-09-25 01:11:00,51.6,43.3,29.88,North,-999,0.0,0.0,73,0.00,,,-99.99,FreeWX-Wi 1.01,2013-09-25 08:11:00,
2013-09-25 01:16:00,51.6,43.3,29.88,North,-999,0.0,0.0,73,0.00,,,-99.99,FreeWX-Wi 1.01,2013-09-25 08:16:00,
2013-09-25 01:21:00,51.6,43.3,29.88,North,-999,0.0,0.0,73,0.00,,,-99.99,FreeWX-Wi 1.01,2013-09-25 08:21:00,
2013-09-25 01:26:00,51.6,43.3,29.88,North,-999,0.0,0.0,73,0.00,,,-99.99,FreeWX-Wi 1.01,2013-09-25 08:26:00,
2013-09-25 01:31:00,51.6,43.5,29.88,North,-999,0.0,0.0,74,0.00,,,-99.99,FreeWX-Wi 1.01,2013-09-25 08:31:00,
2013-09-25 01:36:00,51.8,43.3,29.88,North,-999,0.0,0.0,73,0.00,,,-99.99,FreeWX-Wi 1.01,2013-09-25 08:36:00,
2013-09-25 01:41:00,51.6,43.5,29.88,North,-999,0.0,0.0,74,0.00,,,-99.99,FreeWX-Wi 1.01,2013-09-25 08:41:00,
2013-09-25 01:46:00,51.6,43.5,29.88,North,-999,0.0,0.0,74,0.00,,,-99.99,FreeWX-Wi 1.01,2013-09-25 08:46:00,
2013-09-25 01:51:00,51.6,43.5,29.88,North,-999,0.0,0.0,74,0.00,,,-99.99,FreeWX-Wi 1.01,2013-09-25 08:51:00,
2013-09-25 01:56:00,51.6,43.5,29.88,North,-999,0.0,0.0,74,0.00,,,-99.99,FreeWX-Wi 1.01,2013-09-25 08:56:00,
2013-09-25 02:01:00,51.6,43.3,29.88,North,-999,0.0,0.0,73,0.00,,,-99.99,FreeWX-Wi 1.01,2013-09-25 09:01:00,
2013-09-25 02:06:00,51.6,43.5,29.91,North,-999,0.0,0.0,74,0.00,,,-99.99,FreeWX-Wi 1.01,2013-09-25 09:06:00,
2013-09-25 02:11:00,51.4,43.2,29.91,North,-999,0.0,0.0,73,0.00,,,-99.99,FreeWX-Wi 1.01,2013-09-25 09:11:00,
2013-09-25 02:16:00,51.3,43.0,29.91,North,-999,0.0,0.0,73,0.00,,,-99.99,FreeWX-Wi 1.01,2013-09-25 09:16:00,
2013-09-25 02:21:00,51.3,43.0,29.91,North,-999,0.0,0.0,73,0.00,,,-99.99,FreeWX-Wi 1.01,2013-09-25 09:21:00,
2013-09-25 02:26:00,51.3,43.0,29.88,North,-999,0.0,0.0,73,0.00,,,-99.99,FreeWX-Wi 1.01,2013-09-25 09:26:00,
2013-09-25 02:31:00,51.3,43.3,29.88,North,-999,0.0,0.0,74,0.00,,,-99.99,FreeWX-Wi 1.01,2013-09-25 09:31:00,
2013-09-25 02:36:00,51.1,43.2,29.88,North,-999,0.0,0.0,74,0.00,,,-99.99,FreeWX-Wi 1.01,2013-09-25 09:36:00,
2013-09-25 02:41:00,51.3,43.3,29.88,North,-999,0.0,0.0,74,0.00,,,-99.99,FreeWX-Wi 1.01,2013-09-25 09:41:00,
2013-09-25 02:46:00,51.3,43.3,29.88,North,-999,0.0,0.0,74,0.00,,,-99.99,FreeWX-Wi 1.01,2013-09-25 09:46:00,
2013-09-25 02:51:00,51.3,43.3,29.91,North,-999,0.0,0.0,74,0.00,,,-99.99,FreeWX-Wi 1.01,2013-09-25 09:51:00,
2013-09-25 02:56:00,51.3,43.3,29.91,North,-999,0.0,0.0,74,0.00,,,-99.99,FreeWX-Wi 1.01,2013-09-25 09:56:00,
2013-09-25 03:01:00,51.3,43.3,29.91,North,-999,0.0,0.0,74,0.00,,,-99.99,FreeWX-Wi 1.01,2013-09-25 10:01:00,
2013-09-25 03:06:00,51.3,43.3,29.88,North,-999,0.0,0.0,74,0.00,,,-99.99,FreeWX-Wi 1.01,2013-09-25 10:06:00,
2013-09-25 03:11:00,51.3,43.3,29.88,North,-999,0.0,0.0,74,0.00,,,-99.99,FreeWX-Wi 1.01,2013-09-25 10:11:00,
2013-09-25 03:16:00,51.3,43.3,29.88,North,-999,0.0,0.0,74,0.00,,,-99.99,FreeWX-Wi 1.01,2013-09-25 10:16:00,
2013-09-25 03:21:00,51.4,43.5,29.88,North,-999,0.0,0.0,74,0.00,,,-99.99,FreeWX-Wi 1.01,2013-09-25 10:21:00,
2013-09-25 03:26:00,51.4,43.5,29.88,North,-999,0.0,0.0,74,0.00,,,-99.99,FreeWX-Wi 1.01,2013-09-25 10:26:00,
2013-09-25 03:31:00,51.4,43.5,29.88,North,-999,0.0,0.0,74,0.00,,,-99.99,FreeWX-Wi 1.01,2013-09-25 10:31:00,
2013-09-25 03:36:00,51.4,43.5,29.88,North,-999,0.0,0.0,74,0.00,,,-99.99,FreeWX-Wi 1.01,2013-09-25 10:36:00,
2013-09-25 03:41:00,51.3,43.3,29.88,North,-999,0.0,0.0,74,0.00,,,-99.99,FreeWX-Wi 1.01,2013-09-25 10:41:00,
2013-09-25 03:46:00,51.1,43.2,29.88,North,-999,0.0,0.0,74,0.00,,,-99.99,FreeWX-Wi 1.01,2013-09-25 10:46:00,
2013-09-25 03:51:00,51.1,43.2,29.88,North,-999,0.0,0.0,74,0.00,,,-99.99,FreeWX-Wi 1.01,2013-09-25 10:51:00,
2013-09-25 03:56:00,51.1,43.2,29.88,North,-999,0.0,0.0,74,0.00,,,-99.99,FreeWX-Wi 1.01,2013-09-25 10:56:00,
2013-09-25 04:01:00,51.1,43.2,29.88,North,-999,0.0,0.0,74,0.00,,,-99.99,FreeWX-Wi 1.01,2013-09-25 11:01:00,
2013-09-25 04:06:00,50.9,43.3,29.88,North,-999,0.0,0.0,75,0.00,,,-99.99,FreeWX-Wi 1.01,2013-09-25 11:06:00,
2013-09-25 04:11:00,50.7,43.2,29.88,North,-999,0.0,0.0,75,0.00,,,-99.99,FreeWX-Wi 1.01,2013-09-25 11:11:00,
2013-09-25 04:16:00,50.9,43.3,29.88,North,-999,0.0,0.0,75,0.00,,,-99.99,FreeWX-Wi 1.01,2013-09-25 11:16:00,
2013-09-25 04:21:00,50.7,43.2,29.88,North,-999,0.0,0.0,75,0.00,,,-99.99,FreeWX-Wi 1.01,2013-09-25 11:21:00,
2013-09-25 04:26:00,50.7,43.5,29.88,North,-999,0.0,0.0,76,0.00,,,-99.99,FreeWX-Wi 1.01,2013-09-25 11:26:00,
2013-09-25 04:31:00,50.7,43.5,29.88,North,-999,0.0,0.0,76,0.00,,,-99.99,FreeWX-Wi 1.01,2013-09-25 11:31:00,
2013-09-25 04:36:00,50.7,43.5,29.91,North,-999,0.0,0.0,76,0.00,,,-99.99,FreeWX-Wi 1.01,2013-09-25 11:36:00,
2013-09-25 04:41:00,50.7,43.5,29.91,North,-999,0.0,0.0,76,0.00,,,-99.99,FreeWX-Wi 1.01,2013-09-25 11:41:00,
2013-09-25 04:46:00,50.5,43.3,29.91,North,-999,0.0,0.0,76,0.00,,,-99.99,FreeWX-Wi 1.01,2013-09-25 11:46:00,
2013-09-25 04:51:00,50.5,43.3,29.91,North,-999,0.0,0.0,76,0.00,,,-99.99,FreeWX-Wi 1.01,2013-09-25 11:51:00,
2013-09-25 04:56:00,50.5,43.3,29.91,North,-999,0.0,0.0,76,0.00,,,-99.99,FreeWX-Wi 1.01,2013-09-25 11:56:00,
2013-09-25 05:01:00,50.5,43.3,29.91,North,-999,0.0,0.0,76,0.00,,,-99.99,FreeWX-Wi 1.01,2013-09-25 12:01:00,
2013-09-25 05:06:00,50.5,43.3,29.91,North,-999,0.0,0.0,76,0.00,,,-99.99,FreeWX-Wi 1.01,2013-09-25 12:06:00,
2013-09-25 05:11:00,50.5,43.5,29.88,North,-999,0.0,0.0,77,0.00,,,-99.99,FreeWX-Wi 1.01,2013-09-25 12:11:00,
2013-09-25 05:16:00,50.5,43.5,29.88,North,-999,0.0,0.0,77,0.00,,,-99.99,FreeWX-Wi 1.01,2013-09-25 12:16:00,
2013-09-25 05:21:00,50.5,43.3,29.91,North,-999,0.0,0.0,76,0.00,,,-99.99,FreeWX-Wi 1.01,2013-09-25 12:21:00,
2013-09-25 05:26:00,50.5,43.3,29.91,North,-999,0.0,0.0,76,0.00,,,-99.99,FreeWX-Wi 1.01,2013-09-25 12:26:00,
2013-09-25 05:31:00,50.5,43.3,29.91,North,-999,0.0,0.0,76,0.00,,,-99.99,FreeWX-Wi 1.01,2013-09-25 12:31:00,
2013-09-25 05:36:00,50.5,43.3,29.91,North,-999,0.0,0.0,76,0.00,,,-99.99,FreeWX-Wi 1.01,2013-09-25 12:36:00,
2013-09-25 05:41:00,50.5,43.3,29.91,North,-999,0.0,0.0,76,0.00,,,-99.99,FreeWX-Wi 1.01,2013-09-25 12:41:00,
2013-09-25 05:46:00,50.5,43.3,29.91,North,-999,0.0,0.0,76,0.00,,,-99.99,FreeWX-Wi 1.01,2013-09-25 12:46:00,
2013-09-25 05:51:00,50.4,43.2,29.91,North,-999,0.0,0.0,76,0.00,,,-99.99,FreeWX-Wi 1.01,2013-09-25 12:51:00,
2013-09-25 05:56:00,50.4,43.2,29.91,North,-999,0.0,0.0,76,0.00,,,-99.99,FreeWX-Wi 1.01,2013-09-25 12:56:00,
2013-09-25 06:01:00,50.4,43.3,29.91,North,-999,0.0,0.0,77,0.00,,,-99.99,FreeWX-Wi 1.01,2013-09-25 13:01:00,
2013-09-25 06:06:00,50.4,43.3,29.91,North,-999,0.0,0.0,77,0.00,,,-99.99,FreeWX-Wi 1.01,2013-09-25 13:06:00,
2013-09-25 06:11:00,50.4,43.3,29.91,North,-999,0.0,0.0,77,0.00,,,-99.99,FreeWX-Wi 1.01,2013-09-25 13:11:00,
2013-09-25 06:16:00,50.4,43.3,29.91,North,-999,0.0,0.0,77,0.00,,,-99.99,FreeWX-Wi 1.01,2013-09-25 13:16:00,
2013-09-25 06:21:00,50.4,43.3,29.91,North,-999,0.0,0.0,77,0.00,,,-99.99,FreeWX-Wi 1.01,2013-09-25 13:21:00,
2013-09-25 06:26:00,50.5,43.5,29.91,North,-999,0.0,0.0,77,0.00,,,-99.99,FreeWX-Wi 1.01,2013-09-25 13:26:00,
2013-09-25 06:31:00,50.5,43.5,29.91,North,-999,0.0,0.0,77,0.00,,,-99.99,FreeWX-Wi 1.01,2013-09-25 13:31:00,
2013-09-25 06:36:00,50.5,43.5,29.91,North,-999,0.0,0.0,77,0.00,,,-99.99,FreeWX-Wi 1.01,2013-09-25 13:36:00,
2013-09-25 06:41:00,50.7,43.7,29.91,North,-999,0.0,0.0,77,0.00,,,-99.99,FreeWX-Wi 1.01,2013-09-25 13:41:00,
2013-09-25 06:46:00,50.7,43.7,29.91,North,-999,0.0,0.0,77,0.00,,,-99.99,FreeWX-Wi 1.01,2013-09-25 13:46:00,
2013-09-25 06:51:00,50.7,43.7,29.91,North,-999,0.0,0.0,77,0.00,,,-99.99,FreeWX-Wi 1.01,2013-09-25 13:51:00,
2013-09-25 06:56:00,50.7,43.7,29.91,North,-999,0.0,0.0,77,0.00,,,-99.99,FreeWX-Wi 1.01,2013-09-25 13:56:00,
2013-09-25 07:01:00,50.7,44.1,29.91,North,-999,0.0,0.0,78,0.00,,,-99.99,FreeWX-Wi 1.01,2013-09-25 14:01:00,
2013-09-25 07:06:00,50.9,44.2,29.91,North,-999,0.0,0.0,78,0.00,,,-99.99,FreeWX-Wi 1.01,2013-09-25 14:06:00,
2013-09-25 07:11:00,50.7,44.1,29.91,North,-999,0.0,0.0,78,0.00,,,-99.99,FreeWX-Wi 1.01,2013-09-25 14:11:00,
2013-09-25 07:16:00,50.7,44.1,29.91,North,-999,0.0,0.0,78,0.00,,,-99.99,FreeWX-Wi 1.01,2013-09-25 14:16:00,
2013-09-25 07:21:00,50.7,44.1,29.91,North,-999,0.0,0.0,78,0.00,,,-99.99,FreeWX-Wi 1.01,2013-09-25 14:21:00,
2013-09-25 07:26:00,50.7,44.1,29.91,North,-999,0.0,0.0,78,0.00,,,-99.99,FreeWX-Wi 1.01,2013-09-25 14:26:00,
2013-09-25 07:31:00,50.7,44.1,29.91,North,-999,0.0,0.0,78,0.00,,,-99.99,FreeWX-Wi 1.01,2013-09-25 14:31:00,
2013-09-25 07:36:00,50.7,44.1,29.91,North,-999,0.0,0.0,78,0.00,,,-99.99,FreeWX-Wi 1.01,2013-09-25 14:36:00,
2013-09-25 07:41:00,50.7,44.1,29.91,North,-999,0.0,0.0,78,0.00,,,-99.99,FreeWX-Wi 1.01,2013-09-25 14:41:00,
2013-09-25 07:46:00,50.7,44.1,29.91,North,-999,0.0,0.0,78,0.00,,,-99.99,FreeWX-Wi 1.01,2013-09-25 14:46:00,
2013-09-25 07:51:00,50.9,44.2,29.94,North,-999,0.0,0.0,78,0.00,,,-99.99,FreeWX-Wi 1.01,2013-09-25 14:51:00,
2013-09-25 07:56:00,50.9,44.2,29.94,North,-999,0.0,0.0,78,0.00,,,-99.99,FreeWX-Wi 1.01,2013-09-25 14:56:00,
2013-09-25 08:01:00,51.1,44.4,29.94,North,-999,0.0,0.0,78,0.00,,,-99.99,FreeWX-Wi 1.01,2013-09-25 15:01:00,
2013-09-25 08:06:00,51.1,44.4,29.94,North,-999,0.0,0.0,78,0.00,,,-99.99,FreeWX-Wi 1.01,2013-09-25 15:06:00,
2013-09-25 08:11:00,51.3,44.6,29.94,North,-999,0.0,0.0,78,0.00,,,-99.99,FreeWX-Wi 1.01,2013-09-25 15:11:00,
2013-09-25 08:16:00,51.3,44.6,29.94,North,-999,0.0,0.0,78,0.00,,,-99.99,FreeWX-Wi 1.01,2013-09-25 15:16:00,
2013-09-25 08:21:00,51.1,44.4,29.94,North,-999,0.0,0.0,78,0.00,,,-99.99,FreeWX-Wi 1.01,2013-09-25 15:21:00,
2013-09-25 08:26:00,51.3,44.6,29.94,North,-999,0.0,0.0,78,0.00,,,-99.99,FreeWX-Wi 1.01,2013-09-25 15:26:00,
2013-09-25 08:31:00,51.4,44.8,29.94,North,-999,0.0,0.0,78,0.00,,,-99.99,FreeWX-Wi 1.01,2013-09-25 15:31:00,
2013-09-25 08:36:00,51.4,44.8,29.94,North,-999,0.0,0.0,78,0.00,,,-99.99,FreeWX-Wi 1.01,2013-09-25 15:36:00,
2013-09-25 08:41:00,51.4,44.8,29.94,North,-999,0.0,0.0,78,0.00,,,-99.99,FreeWX-Wi 1.01,2013-09-25 15:41:00,
2013-09-25 08:46:00,51.6,45.0,29.94,North,-999,0.0,0.0,78,0.00,,,-99.99,FreeWX-Wi 1.01,2013-09-25 15:46:00,
2013-09-25 08:51:00,51.8,45.1,29.94,North,-999,0.0,0.0,78,0.00,,,-99.99,FreeWX-Wi 1.01,2013-09-25 15:51:00,
2013-09-25 08:56:00,52.0,45.3,29.94,North,-999,0.0,0.0,78,0.00,,,-99.99,FreeWX-Wi 1.01,2013-09-25 15:56:00,
2013-09-25 09:01:00,52.2,45.5,29.94,North,-999,0.0,0.0,78,0.00,,,-99.99,FreeWX-Wi 1.01,2013-09-25 16:01:00,
2013-09-25 09:06:00,52.3,45.7,29.94,North,-999,0.0,0.0,78,0.00,,,-99.99,FreeWX-Wi 1.01,2013-09-25 16:06:00,
2013-09-25 09:11:00,52.3,45.7,29.94,North,-999,0.0,0.0,78,0.00,,,-99.99,FreeWX-Wi 1.01,2013-09-25 16:11:00,
2013-09-25 09:16:00,52.3,45.7,29.94,North,-999,0.0,0.0,78,0.00,,,-99.99,FreeWX-Wi 1.01,2013-09-25 16:16:00,
2013-09-25 09:21:00,52.5,45.9,29.94,North,-999,0.0,0.0,78,0.00,,,-99.99,FreeWX-Wi 1.01,2013-09-25 16:21:00,
2013-09-25 09:26:00,52.7,46.0,29.94,North,-999,0.0,0.0,78,0.00,,,-99.99,FreeWX-Wi 1.01,2013-09-25 16:26:00,
2013-09-25 09:31:00,52.7,46.0,29.94,North,-999,0.0,0.0,78,0.00,,,-99.99,FreeWX-Wi 1.01,2013-09-25 16:31:00,
2013-09-25 09:36:00,52.9,46.2,29.94,North,-999,0.0,0.0,78,0.00,,,-99.99,FreeWX-Wi 1.01,2013-09-25 16:36:00,
2013-09-25 09:41:00,53.1,46.4,29.94,North,-999,0.0,0.0,78,0.00,,,-99.99,FreeWX-Wi 1.01,2013-09-25 16:41:00,
2013-09-25 09:46:00,54.3,47.7,29.94,North,-999,0.0,0.0,78,0.00,,,-99.99,FreeWX-Wi 1.01,2013-09-25 16:46:00,
2013-09-25 09:51:00,55.4,48.7,29.94,North,-999,0.0,0.0,78,0.00,,,-99.99,FreeWX-Wi 1.01,2013-09-25 16:51:00,
2013-09-25 09:56:00,55.9,49.1,29.94,North,-999,0.0,0.0,78,0.00,,,-99.99,FreeWX-Wi 1.01,2013-09-25 16:56:00,
2013-09-25 10:01:00,56.3,49.1,29.94,North,-999,0.0,0.0,77,0.00,,,-99.99,FreeWX-Wi 1.01,2013-09-25 17:01:00,
2013-09-25 10:06:00,56.8,49.6,29.94,North,-999,0.0,0.0,77,0.00,,,-99.99,FreeWX-Wi 1.01,2013-09-25 17:06:00,
2013-09-25 10:11:00,56.7,49.1,29.94,North,-999,0.0,0.0,76,0.00,,,-99.99,FreeWX-Wi 1.01,2013-09-25 17:11:00,
2013-09-25 10:16:00,56.5,48.7,29.94,North,-999,0.0,3.1,75,0.00,,,-99.99,FreeWX-Wi 1.01,2013-09-25 17:16:00,
2013-09-25 10:21:00,56.3,48.2,29.94,North,-999,0.0,0.0,74,0.00,,,-99.99,FreeWX-Wi 1.01,2013-09-25 17:21:00,
2013-09-25 10:26:00,56.1,47.7,29.94,North,-999,0.0,0.0,73,0.00,,,-99.99,FreeWX-Wi 1.01,2013-09-25 17:26:00,
2013-09-25 10:31:00,55.8,47.3,29.94,North,-999,0.0,0.0,73,0.00,,,-99.99,FreeWX-Wi 1.01,2013-09-25 17:31:00,
2013-09-25 10:36:00,55.8,46.9,29.94,North,-999,0.0,0.0,72,0.00,,,-99.99,FreeWX-Wi 1.01,2013-09-25 17:36:00,
2013-09-25 10:41:00,55.9,47.1,29.94,North,-999,0.0,0.0,72,0.00,,,-99.99,FreeWX-Wi 1.01,2013-09-25 17:41:00,
2013-09-25 10:46:00,56.1,47.3,29.94,North,-999,0.0,0.0,72,0.00,,,-99.99,FreeWX-Wi 1.01,2013-09-25 17:46:00,
2013-09-25 10:51:00,56.7,47.7,29.97,North,-999,0.0,0.0,72,0.00,,,-99.99,FreeWX-Wi 1.01,2013-09-25 17:51:00,
2013-09-25 10:56:00,56.7,47.7,29.97,North,-999,0.0,3.6,72,0.00,,,-99.99,FreeWX-Wi 1.01,2013-09-25 17:56:00,
2013-09-25 11:01:00,56.7,47.3,29.97,North,-999,0.0,0.0,71,0.00,,,-99.99,FreeWX-Wi 1.01,2013-09-25 18:01:00,
2013-09-25 11:06:00,56.3,46.9,29.97,North,-999,0.0,0.0,71,0.00,,,-99.99,FreeWX-Wi 1.01,2013-09-25 18:06:00,
2013-09-25 11:11:00,55.6,44.1,29.97,North,-999,0.0,0.0,65,0.00,,,-99.99,FreeWX-Wi 1.01,2013-09-25 18:11:00,
2013-09-25 11:16:00,56.1,44.6,29.97,North,-999,0.0,0.0,65,0.00,,,-99.99,FreeWX-Wi 1.01,2013-09-25 18:16:00,
2013-09-25 11:21:00,56.5,45.3,29.97,North,-999,0.0,0.0,66,0.00,,,-99.99,FreeWX-Wi 1.01,2013-09-25 18:21:00,
2013-09-25 11:26:00,56.8,45.7,29.97,North,-999,0.0,0.0,66,0.00,,,-99.99,FreeWX-Wi 1.01,2013-09-25 18:26:00,
2013-09-25 11:31:00,57.4,45.0,29.97,North,-999,0.0,0.0,63,0.00,,,-99.99,FreeWX-Wi 1.01,2013-09-25 18:31:00,
2013-09-25 11:36:00,58.1,43.3,29.97,North,-999,0.0,3.1,58,0.00,,,-99.99,FreeWX-Wi 1.01,2013-09-25 18:36:00,
2013-09-25 11:41:00,59.0,39.9,29.97,North,-999,0.0,3.1,49,0.00,,,-99.99,FreeWX-Wi 1.01,2013-09-25 18:41:00,
2013-09-25 11:46:00,59.2,36.7,29.97,North,-999,0.0,4.0,43,0.00,,,-99.99,FreeWX-Wi 1.01,2013-09-25 18:46:00,
2013-09-25 11:51:00,59.7,34.7,29.97,North,-999,0.0,2.2,39,0.00,,,-99.99,FreeWX-Wi 1.01,2013-09-25 18:51:00,
2013-09-25 11:56:00,59.4,34.3,29.97,North,-999,0.0,0.0,39,0.00,,,-99.99,FreeWX-Wi 1.01,2013-09-25 18:56:00,
2013-09-25 12:01:00,58.8,34.5,29.97,North,-999,0.0,0.0,40,0.00,,,-99.99,FreeWX-Wi 1.01,2013-09-25 19:01:00,
2013-09-25 12:06:00,58.6,35.1,29.97,North,-999,0.0,0.0,41,0.00,,,-99.99,FreeWX-Wi 1.01,2013-09-25 19:06:00,
2013-09-25 12:11:00,58.6,34.3,29.97,North,-999,0.0,0.0,40,0.00,,,-99.99,FreeWX-Wi 1.01,2013-09-25 19:11:00,
2013-09-25 12:16:00,58.1,31.3,29.97,North,-999,0.0,4.0,36,0.00,,,-99.99,FreeWX-Wi 1.01,2013-09-25 19:16:00,
2013-09-25 12:21:00,57.9,31.8,29.97,North,-999,0.0,4.0,37,0.00,,,-99.99,FreeWX-Wi 1.01,2013-09-25 19:21:00,
2013-09-25 12:26:00,57.9,31.8,29.97,North,-999,0.0,3.6,37,0.00,,,-99.99,FreeWX-Wi 1.01,2013-09-25 19:26:00,
2013-09-25 12:31:00,57.9,31.8,29.97,North,-999,0.0,0.0,37,0.00,,,-99.99,FreeWX-Wi 1.01,2013-09-25 19:31:00,
2013-09-25 12:36:00,58.1,32.0,29.97,North,-999,0.0,0.0,37,0.00,,,-99.99,FreeWX-Wi 1.01,2013-09-25 19:36:00,
2013-09-25 12:41:00,58.3,31.5,29.97,North,-999,0.0,4.9,36,0.00,,,-99.99,FreeWX-Wi 1.01,2013-09-25 19:41:00,
2013-09-25 12:46:00,58.5,30.9,29.97,North,-999,0.0,5.4,35,0.00,,,-99.99,FreeWX-Wi 1.01,2013-09-25 19:46:00,
2013-09-25 12:51:00,58.5,30.2,29.97,North,-999,0.0,3.6,34,0.00,,,-99.99,FreeWX-Wi 1.01,2013-09-25 19:51:00,
2013-09-25 12:56:00,58.6,29.7,29.97,WNW,290,1.0,4.0,33,0.00,,,-99.99,FreeWX-Wi 1.01,2013-09-25 19:56:00,
2013-09-25 13:01:00,59.0,30.7,29.97,WNW,293,1.0,0.0,34,0.00,,,-99.99,FreeWX-Wi 1.01,2013-09-25 20:01:00,
2013-09-25 13:06:00,59.0,27.7,29.97,WNW,296,1.0,5.4,30,0.00,,,-99.99,FreeWX-Wi 1.01,2013-09-25 20:06:00,
2013-09-25 13:11:00,59.0,24.1,29.97,WNW,298,1.0,5.4,26,0.00,,,-99.99,FreeWX-Wi 1.01,2013-09-25 20:11:00,
2013-09-25 13:16:00,59.2,25.2,29.97,WNW,296,1.0,3.6,27,0.00,,,-99.99,FreeWX-Wi 1.01,2013-09-25 20:16:00,
2013-09-25 13:21:00,59.7,27.5,29.97,WNW,293,1.0,3.1,29,0.00,,,-99.99,FreeWX-Wi 1.01,2013-09-25 20:21:00,
2013-09-25 13:26:00,60.8,31.5,29.97,WNW,298,1.0,2.2,33,0.00,,,-99.99,FreeWX-Wi 1.01,2013-09-25 20:26:00,
2013-09-25 13:31:00,61.7,29.1,29.97,WNW,298,1.0,3.6,29,0.00,,,-99.99,FreeWX-Wi 1.01,2013-09-25 20:31:00,
2013-09-25 13:36:00,61.5,27.1,29.97,WNW,296,1.0,2.7,27,0.00,,,-99.99,FreeWX-Wi 1.01,2013-09-25 20:36:00,
2013-09-25 13:41:00,60.8,26.6,29.97,North,-999,0.0,4.9,27,0.00,,,-99.99,FreeWX-Wi 1.01,2013-09-25 20:41:00,
2013-09-25 13:46:00,59.7,29.8,29.97,WNW,303,1.0,6.3,32,0.00,,,-99.99,FreeWX-Wi 1.01,2013-09-25 20:46:00,
2013-09-25 13:51:00,58.6,31.1,29.97,NW,311,1.0,4.0,35,0.00,,,-99.99,FreeWX-Wi 1.01,2013-09-25 20:51:00,
2013-09-25 13:56:00,58.1,31.3,29.97,NW,309,1.0,0.0,36,0.00,,,-99.99,FreeWX-Wi 1.01,2013-09-25 20:56:00,
2013-09-25 14:01:00,58.1,33.3,29.97,NW,312,1.0,0.0,39,0.00,,,-99.99,FreeWX-Wi 1.01,2013-09-25 21:01:00,
2013-09-25 14:06:00,58.5,33.6,29.97,NW,314,1.0,0.0,39,0.00,,,-99.99,FreeWX-Wi 1.01,2013-09-25 21:06:00,
2013-09-25 14:11:00,58.8,34.0,29.97,North,-999,0.0,0.0,39,0.00,,,-99.99,FreeWX-Wi 1.01,2013-09-25 21:11:00,
2013-09-25 14:16:00,59.0,32.7,29.97,North,-999,0.0,3.6,37,0.00,,,-99.99,FreeWX-Wi 1.01,2013-09-25 21:16:00,
2013-09-25 14:21:00,59.0,30.7,29.97,North,-999,0.0,5.4,34,0.00,,,-99.99,FreeWX-Wi 1.01,2013-09-25 21:21:00,
2013-09-25 14:26:00,59.2,30.9,29.97,North,-999,0.0,0.0,34,0.00,,,-99.99,FreeWX-Wi 1.01,2013-09-25 21:26:00,
2013-09-25 14:31:00,59.2,25.2,29.97,North,-999,0.0,0.0,27,0.00,,,-99.99,FreeWX-Wi 1.01,2013-09-25 21:31:00,
2013-09-25 14:36:00,59.4,27.1,29.97,North,-999,0.0,3.6,29,0.00,,,-99.99,FreeWX-Wi 1.01,2013-09-25 21:36:00,
2013-09-25 14:41:00,59.9,25.9,29.97,North,-999,0.0,4.0,27,0.00,,,-99.99,FreeWX-Wi 1.01,2013-09-25 21:41:00,
2013-09-25 14:46:00,60.3,25.2,29.97,North,-999,0.0,5.8,26,0.00,,,-99.99,FreeWX-Wi 1.01,2013-09-25 21:46:00,
2013-09-25 14:51:00,59.9,25.0,29.97,North,-999,0.0,0.0,26,0.00,,,-99.99,FreeWX-Wi 1.01,2013-09-25 21:51:00,
2013-09-25 14:56:00,59.9,25.0,29.97,North,-999,0.0,0.0,26,0.00,,,-99.99,FreeWX-Wi 1.01,2013-09-25 21:56:00,
2013-09-25 15:01:00,59.9,25.0,29.97,North,-999,0.0,0.0,26,0.00,,,-99.99,FreeWX-Wi 1.01,2013-09-25 22:01:00,
2013-09-25 15:06:00,59.9,24.1,29.97,North,-999,0.0,0.0,25,0.00,,,-99.99,FreeWX-Wi 1.01,2013-09-25 22:06:00,
2013-09-25 15:11:00,60.1,27.0,29.97,North,-999,0.0,2.7,28,0.00,,,-99.99,FreeWX-Wi 1.01,2013-09-25 22:11:00,
2013-09-25 15:17:00,60.1,24.1,29.97,North,-999,0.0,5.4,25,0.00,,,-99.99,FreeWX-Wi 1.01,2013-09-25 22:17:00,
2013-09-25 15:27:00,59.9,26.8,29.97,North,-999,0.0,4.9,28,0.00,,,-99.99,FreeWX-Wi 1.01,2013-09-25 22:27:00,
2013-09-25 15:32:00,59.7,26.6,29.97,North,-999,0.0,4.0,28,0.00,,,-99.99,FreeWX-Wi 1.01,2013-09-25 22:32:00,
2013-09-25 15:37:00,59.4,26.2,29.97,NW,317,1.0,5.4,28,0.00,,,-99.99,FreeWX-Wi 1.01,2013-09-25 22:37:00,
2013-09-25 15:42:00,58.8,27.5,29.97,NW,309,1.0,2.7,30,0.00,,,-99.99,FreeWX-Wi 1.01,2013-09-25 22:42:00,
2013-09-25 15:47:00,58.5,28.8,29.97,NW,304,1.0,0.0,32,0.00,,,-99.99,FreeWX-Wi 1.01,2013-09-25 22:47:00,
2013-09-25 15:52:00,58.1,29.1,30.00,North,-999,0.0,0.0,33,0.00,,,-99.99,FreeWX-Wi 1.01,2013-09-25 22:52:00,
2013-09-25 15:57:00,57.9,29.7,30.00,North,-999,0.0,0.0,34,0.00,,,-99.99,FreeWX-Wi 1.01,2013-09-25 22:57:00,
2013-09-25 16:02:00,57.9,29.7,30.00,North,-999,0.0,0.0,34,0.00,,,-99.99,FreeWX-Wi 1.01,2013-09-25 23:02:00,
2013-09-25 16:07:00,58.1,29.8,30.00,North,-999,0.0,0.0,34,0.00,,,-99.99,FreeWX-Wi 1.01,2013-09-25 23:07:00,
2013-09-25 16:12:00,58.1,28.4,30.00,North,-999,0.0,0.0,32,0.00,,,-99.99,FreeWX-Wi 1.01,2013-09-25 23:12:00,
2013-09-25 16:17:00,58.3,29.3,30.00,North,-999,0.0,0.0,33,0.00,,,-99.99,FreeWX-Wi 1.01,2013-09-25 23:17:00,
2013-09-25 16:22:00,58.5,30.2,30.00,North,-999,0.0,0.0,34,0.00,,,-99.99,FreeWX-Wi 1.01,2013-09-25 23:22:00,
2013-09-25 16:27:00,58.6,31.1,30.00,North,-999,0.0,0.0,35,0.00,,,-99.99,FreeWX-Wi 1.01,2013-09-25 23:27:00,
2013-09-25 16:32:00,58.8,31.3,30.00,North,-999,0.0,0.0,35,0.00,,,-99.99,FreeWX-Wi 1.01,2013-09-25 23:32:00,
2013-09-25 16:37:00,59.0,31.5,30.00,North,-999,0.0,0.0,35,0.00,,,-99.99,FreeWX-Wi 1.01,2013-09-25 23:37:00,
2013-09-25 16:42:00,59.0,31.5,30.00,North,-999,0.0,0.0,35,0.00,,,-99.99,FreeWX-Wi 1.01,2013-09-25 23:42:00,
2013-09-25 16:47:00,59.2,32.2,30.00,North,-999,0.0,0.0,36,0.00,,,-99.99,FreeWX-Wi 1.01,2013-09-25 23:47:00,
2013-09-25 16:52:00,59.2,32.2,30.00,North,-999,0.0,0.0,36,0.00,,,-99.99,FreeWX-Wi 1.01,2013-09-25 23:52:00,
2013-09-25 16:57:00,59.0,32.0,30.00,North,-999,0.0,0.0,36,0.00,,,-99.99,FreeWX-Wi 1.01,2013-09-25 23:57:00,
2013-09-25 17:02:00,58.8,32.5,30.00,North,-999,0.0,0.0,37,0.00,,,-99.99,FreeWX-Wi 1.01,2013-09-26 00:02:00,
2013-09-25 17:07:00,58.8,32.5,30.00,North,-999,0.0,0.0,37,0.00,,,-99.99,FreeWX-Wi 1.01,2013-09-26 00:07:00,
2013-09-25 17:12:00,58.8,33.3,30.00,North,-999,0.0,0.0,38,0.00,,,-99.99,FreeWX-Wi 1.01,2013-09-26 00:12:00,
2013-09-25 17:17:00,58.6,33.8,30.00,North,-999,0.0,0.0,39,0.00,,,-99.99,FreeWX-Wi 1.01,2013-09-26 00:17:00,
2013-09-25 17:22:00,58.5,33.6,30.00,North,-999,0.0,0.0,39,0.00,,,-99.99,FreeWX-Wi 1.01,2013-09-26 00:22:00,
2013-09-25 17:27:00,58.1,33.3,30.00,North,-999,0.0,0.0,39,0.00,,,-99.99,FreeWX-Wi 1.01,2013-09-26 00:27:00,
2013-09-25 17:32:00,57.9,33.8,30.00,North,-999,0.0,0.0,40,0.00,,,-99.99,FreeWX-Wi 1.01,2013-09-26 00:32:00,
2013-09-25 17:37:00,57.6,33.4,30.00,North,-999,0.0,0.0,40,0.00,,,-99.99,FreeWX-Wi 1.01,2013-09-26 00:37:00,
2013-09-25 17:42:00,57.6,33.4,30.00,North,-999,0.0,0.0,40,0.00,,,-99.99,FreeWX-Wi 1.01,2013-09-26 00:42:00,
2013-09-25 17:47:00,57.2,33.8,30.00,North,-999,0.0,0.0,41,0.00,,,-99.99,FreeWX-Wi 1.01,2013-09-26 00:47:00,
2013-09-25 17:52:00,57.0,34.2,30.00,North,-999,0.0,0.0,42,0.00,,,-99.99,FreeWX-Wi 1.01,2013-09-26 00:52:00,
2013-09-25 17:57:00,56.8,34.0,30.00,North,-999,0.0,0.0,42,0.00,,,-99.99,FreeWX-Wi 1.01,2013-09-26 00:57:00,
2013-09-25 18:02:00,56.8,34.5,30.00,North,-999,0.0,0.0,43,0.00,,,-99.99,FreeWX-Wi 1.01,2013-09-26 01:02:00,
2013-09-25 18:07:00,56.8,34.5,30.00,North,-999,0.0,0.0,43,0.00,,,-99.99,FreeWX-Wi 1.01,2013-09-26 01:07:00,
2013-09-25 18:12:00,56.8,35.2,30.00,North,-999,0.0,0.0,44,0.00,,,-99.99,FreeWX-Wi 1.01,2013-09-26 01:12:00,
2013-09-25 18:17:00,56.8,35.2,30.00,North,-999,0.0,0.0,44,0.00,,,-99.99,FreeWX-Wi 1.01,2013-09-26 01:17:00,
2013-09-25 18:22:00,56.8,35.8,30.00,North,-999,0.0,0.0,45,0.00,,,-99.99,FreeWX-Wi 1.01,2013-09-26 01:22:00,
2013-09-25 18:27:00,56.8,35.8,30.00,North,-999,0.0,0.0,45,0.00,,,-99.99,FreeWX-Wi 1.01,2013-09-26 01:27:00,
2013-09-25 18:32:00,56.8,35.8,30.00,North,-999,0.0,0.0,45,0.00,,,-99.99,FreeWX-Wi 1.01,2013-09-26 01:32:00,
2013-09-25 18:37:00,56.8,35.8,30.03,North,-999,0.0,0.0,45,0.00,,,-99.99,FreeWX-Wi 1.01,2013-09-26 01:37:00,
2013-09-25 18:42:00,56.8,36.3,30.03,North,-999,0.0,0.0,46,0.00,,,-99.99,FreeWX-Wi 1.01,2013-09-26 01:42:00,
2013-09-25 18:47:00,56.7,36.1,30.03,North,-999,0.0,0.0,46,0.00,,,-99.99,FreeWX-Wi 1.01,2013-09-26 01:47:00,
2013-09-25 18:52:00,56.5,36.0,30.03,North,-999,0.0,0.0,46,0.00,,,-99.99,FreeWX-Wi 1.01,2013-09-26 01:52:00,
2013-09-25 18:57:00,56.5,36.5,30.03,North,-999,0.0,0.0,47,0.00,,,-99.99,FreeWX-Wi 1.01,2013-09-26 01:57:00,
2013-09-25 19:02:00,56.3,36.3,30.03,North,-999,0.0,0.0,47,0.00,,,-99.99,FreeWX-Wi 1.01,2013-09-26 02:02:00,
2013-09-25 19:07:00,56.3,36.3,30.03,North,-999,0.0,0.0,47,0.00,,,-99.99,FreeWX-Wi 1.01,2013-09-26 02:07:00,
2013-09-25 19:12:00,56.3,36.3,30.03,North,-999,0.0,0.0,47,0.00,,,-99.99,FreeWX-Wi 1.01,2013-09-26 02:12:00,
2013-09-25 19:17:00,56.1,36.1,30.03,North,-999,0.0,0.0,47,0.00,,,-99.99,FreeWX-Wi 1.01,2013-09-26 02:17:00,
2013-09-25 19:22:00,56.1,36.1,30.03,North,-999,0.0,0.0,47,0.00,,,-99.99,FreeWX-Wi 1.01,2013-09-26 02:22:00,
2013-09-25 19:27:00,56.1,35.6,30.03,North,-999,0.0,0.0,46,0.00,,,-99.99,FreeWX-Wi 1.01,2013-09-26 02:27:00,
2013-09-25 19:32:00,56.1,35.6,30.03,North,-999,0.0,0.0,46,0.00,,,-99.99,FreeWX-Wi 1.01,2013-09-26 02:32:00,
2013-09-25 19:37:00,56.1,35.6,30.03,North,-999,0.0,0.0,46,0.00,,,-99.99,FreeWX-Wi 1.01,2013-09-26 02:37:00,
2013-09-25 19:42:00,55.9,35.4,30.03,North,-999,0.0,0.0,46,0.00,,,-99.99,FreeWX-Wi 1.01,2013-09-26 02:42:00,
2013-09-25 19:47:00,55.9,35.4,30.03,North,-999,0.0,0.0,46,0.00,,,-99.99,FreeWX-Wi 1.01,2013-09-26 02:47:00,
2013-09-25 19:52:00,55.8,35.2,30.03,North,-999,0.0,0.0,46,0.00,,,-99.99,FreeWX-Wi 1.01,2013-09-26 02:52:00,
2013-09-25 19:57:00,55.8,35.2,30.03,North,-999,0.0,0.0,46,0.00,,,-99.99,FreeWX-Wi 1.01,2013-09-26 02:57:00,
2013-09-25 20:02:00,55.6,35.1,30.03,North,-999,0.0,0.0,46,0.00,,,-99.99,FreeWX-Wi 1.01,2013-09-26 03:02:00,
2013-09-25 20:07:00,55.8,35.2,30.03,North,-999,0.0,0.0,46,0.00,,,-99.99,FreeWX-Wi 1.01,2013-09-26 03:07:00,
2013-09-25 20:12:00,55.8,35.2,30.03,North,-999,0.0,0.0,46,0.00,,,-99.99,FreeWX-Wi 1.01,2013-09-26 03:12:00,
2013-09-25 20:17:00,55.4,34.9,30.03,North,-999,0.0,0.0,46,0.00,,,-99.99,FreeWX-Wi 1.01,2013-09-26 03:17:00,
2013-09-25 20:22:00,55.2,34.9,30.03,North,-999,0.0,0.0,46,0.00,,,-99.99,FreeWX-Wi 1.01,2013-09-26 03:22:00,
2013-09-25 20:27:00,55.2,34.9,30.03,North,-999,0.0,0.0,46,0.00,,,-99.99,FreeWX-Wi 1.01,2013-09-26 03:27:00,
2013-09-25 20:32:00,55.0,34.7,30.03,North,-999,0.0,0.0,46,0.00,,,-99.99,FreeWX-Wi 1.01,2013-09-26 03:32:00,
2013-09-25 20:37:00,54.9,35.1,30.03,North,-999,0.0,0.0,47,0.00,,,-99.99,FreeWX-Wi 1.01,2013-09-26 03:37:00,
2013-09-25 20:42:00,54.9,35.1,30.03,North,-999,0.0,0.0,47,0.00,,,-99.99,FreeWX-Wi 1.01,2013-09-26 03:42:00,
2013-09-25 20:47:00,55.0,35.2,30.03,North,-999,0.0,0.0,47,0.00,,,-99.99,FreeWX-Wi 1.01,2013-09-26 03:47:00,
2013-09-25 20:52:00,54.9,35.1,30.03,North,-999,0.0,0.0,47,0.00,,,-99.99,FreeWX-Wi 1.01,2013-09-26 03:52:00,
2013-09-25 20:57:00,54.9,35.1,30.03,North,-999,0.0,0.0,47,0.00,,,-99.99,FreeWX-Wi 1.01,2013-09-26 03:57:00,
2013-09-25 21:02:00,54.9,35.6,30.03,North,-999,0.0,0.0,48,0.00,,,-99.99,FreeWX-Wi 1.01,2013-09-26 04:02:00,
2013-09-25 21:07:00,55.0,35.8,30.06,North,-999,0.0,0.0,48,0.00,,,-99.99,FreeWX-Wi 1.01,2013-09-26 04:07:00,
2013-09-25 21:12:00,55.0,35.8,30.06,North,-999,0.0,0.0,48,0.00,,,-99.99,FreeWX-Wi 1.01,2013-09-26 04:12:00,
2013-09-25 21:17:00,55.0,35.8,30.06,North,-999,0.0,0.0,48,0.00,,,-99.99,FreeWX-Wi 1.01,2013-09-26 04:17:00,
2013-09-25 21:22:00,55.0,35.8,30.06,North,-999,0.0,0.0,48,0.00,,,-99.99,FreeWX-Wi 1.01,2013-09-26 04:22:00,
2013-09-25 21:27:00,55.0,35.2,30.06,North,-999,0.0,0.0,47,0.00,,,-99.99,FreeWX-Wi 1.01,2013-09-26 04:27:00,
2013-09-25 21:32:00,54.9,35.1,30.06,North,-999,0.0,0.0,47,0.00,,,-99.99,FreeWX-Wi 1.01,2013-09-26 04:32:00,
2013-09-25 21:37:00,55.0,35.2,30.06,North,-999,0.0,0.0,47,0.00,,,-99.99,FreeWX-Wi 1.01,2013-09-26 04:37:00,
2013-09-25 21:42:00,55.0,35.2,30.06,North,-999,0.0,0.0,47,0.00,,,-99.99,FreeWX-Wi 1.01,2013-09-26 04:42:00,
2013-09-25 21:47:00,55.0,35.2,30.06,North,-999,0.0,0.0,47,0.00,,,-99.99,FreeWX-Wi 1.01,2013-09-26 04:47:00,
2013-09-25 21:52:00,55.0,35.2,30.06,North,-999,0.0,0.0,47,0.00,,,-99.99,FreeWX-Wi 1.01,2013-09-26 04:52:00,
2013-09-25 21:57:00,54.9,34.5,30.06,North,-999,0.0,0.0,46,0.00,,,-99.99,FreeWX-Wi 1.01,2013-09-26 04:57:00,
2013-09-25 22:02:00,55.0,34.7,30.06,North,-999,0.0,0.0,46,0.00,,,-99.99,FreeWX-Wi 1.01,2013-09-26 05:02:00,
2013-09-25 22:07:00,55.0,34.7,30.06,North,-999,0.0,0.0,46,0.00,,,-99.99,FreeWX-Wi 1.01,2013-09-26 05:07:00,
2013-09-25 22:12:00,55.0,34.7,30.06,North,-999,0.0,0.0,46,0.00,,,-99.99,FreeWX-Wi 1.01,2013-09-26 05:12:00,
2013-09-25 22:17:00,55.0,34.7,30.06,North,-999,0.0,0.0,46,0.00,,,-99.99,FreeWX-Wi 1.01,2013-09-26 05:17:00,
2013-09-25 22:22:00,54.9,34.5,30.06,North,-999,0.0,0.0,46,0.00,,,-99.99,FreeWX-Wi 1.01,2013-09-26 05:22:00,
2013-09-25 22:27:00,54.9,34.5,30.06,North,-999,0.0,0.0,46,0.00,,,-99.99,FreeWX-Wi 1.01,2013-09-26 05:27:00,
2013-09-25 22:32:00,54.9,34.5,30.06,North,-999,0.0,0.0,46,0.00,,,-99.99,FreeWX-Wi 1.01,2013-09-26 05:32:00,
2013-09-25 22:37:00,54.9,34.5,30.06,North,-999,0.0,0.0,46,0.00,,,-99.99,FreeWX-Wi 1.01,2013-09-26 05:37:00,
2013-09-25 22:42:00,54.9,34.5,30.06,North,-999,0.0,0.0,46,0.00,,,-99.99,FreeWX-Wi 1.01,2013-09-26 05:42:00,
2013-09-25 22:47:00,54.9,34.5,30.06,North,-999,0.0,0.0,46,0.00,,,-99.99,FreeWX-Wi 1.01,2013-09-26 05:47:00,
2013-09-25 22:52:00,54.7,34.3,30.06,North,-999,0.0,0.0,46,0.00,,,-99.99,FreeWX-Wi 1.01,2013-09-26 05:52:00,
2013-09-25 22:57:00,54.7,34.3,30.06,North,-999,0.0,0.0,46,0.00,,,-99.99,FreeWX-Wi 1.01,2013-09-26 05:57:00,
2013-09-25 23:02:00,54.5,34.2,30.06,North,-999,0.0,0.0,46,0.00,,,-99.99,FreeWX-Wi 1.01,2013-09-26 06:02:00,
2013-09-25 23:07:00,54.5,34.2,30.06,North,-999,0.0,0.0,46,0.00,,,-99.99,FreeWX-Wi 1.01,2013-09-26 06:07:00,
2013-09-25 23:12:00,54.5,34.2,30.06,North,-999,0.0,0.0,46,0.00,,,-99.99,FreeWX-Wi 1.01,2013-09-26 06:12:00,
2013-09-25 23:17:00,54.5,34.2,30.06,North,-999,0.0,0.0,46,0.00,,,-99.99,FreeWX-Wi 1.01,2013-09-26 06:17:00,
2013-09-25 23:22:00,54.3,34.0,30.06,North,-999,0.0,0.0,46,0.00,,,-99.99,FreeWX-Wi 1.01,2013-09-26 06:22:00,
2013-09-25 23:27:00,54.3,34.0,30.06,North,-999,0.0,0.0,46,0.00,,,-99.99,FreeWX-Wi 1.01,2013-09-26 06:27:00,
2013-09-25 23:32:00,54.1,33.8,30.06,North,-999,0.0,0.0,46,0.00,,,-99.99,FreeWX-Wi 1.01,2013-09-26 06:32:00,
2013-09-25 23:37:00,54.1,34.3,30.06,North,-999,0.0,0.0,47,0.00,,,-99.99,FreeWX-Wi 1.01,2013-09-26 06:37:00,
2013-09-25 23:42:00,54.0,34.2,30.06,North,-999,0.0,0.0,47,0.00,,,-99.99,FreeWX-Wi 1.01,2013-09-26 06:42:00,
2013-09-25 23:47:00,53.8,33.4,30.06,North,-999,0.0,0.0,46,0.00,,,-99.99,FreeWX-Wi 1.01,2013-09-26 06:47:00,
2013-09-25 23:52:00,53.6,33.3,30.06,North,-999,0.0,0.0,46,0.00,,,-99.99,FreeWX-Wi 1.01,2013-09-26 06:52:00,
2013-09-25 23:57:00,53.4,33.6,30.06,North,-999,0.0,0.0,47,0.00,,,-99.99,FreeWX-Wi 1.01,2013-09-26 06:57:00,